STARLINK-31

decayed
NORAD ID: 44235 Int'l Des: 2019-029 Owner: SPXS Country: US Constellation: starlink
LEOCIRCULAR
グループ

STARLINK-31について

説明を読み込み中...

高度履歴

Altitude vs Time

uPlot chart will show altitude changes over time

軌道要素

1 44235U 19029A 20275.31341942 .09808971 12623-4 18159-3 0 9999
2 44235 52.9736 36.3928 0009041 295.9879 160.3065 16.46847225 76971
Epoch: Oct 1, 2020 • Age: 43452 hours

現在のステータス

Position data unavailable
打ち上げ日 May 24, 2019
運用期間 6.3 years
落下予定日 Oct 1, 2020
タイプ internet

技術仕様

分類 Payload
質量 227.00 kg
乾燥質量 219.00 kg
総質量 227.00 kg
長さ 0.20 m
直径 2.80 m
スパン 9.00 m
形状 Box + pan
製造者 SPXS
バスタイプ Starlink
フェーズステータス Reentered
所有者/国 SPXS/US

大規模コンステレーション

Loading constellations...